[[{"header":{"parameterUnit":"m.s-1","parameterCategory":1,"la1":30.2991,"la2":30.254,"lo1":-89.0895,"lo2":-89.0444,"dy":0.0017,"dx":0.0017,"nx":28,"ny":28,"refTime":"2023-09-14T03:00:00:Z","depth":0,"parameterNumber":2,"parameterNumberName":"U-component_of_WINDS"},"data":[0,0,0,0,0,0,0,0,0,0,0,0,0,0,0,0,0,0,0,0,0,0,0,0,0,0,0,0,0,0,0,0,0,0,0,0,0,0,0,0,0,0,0,0,0,0,0,0,0,0,0,0,0,0,0,0,0,0,-0.6495,-0.6495,0,-0.6525,-0.6525,-0.6526,-0.6505,-0.6504,-0.6503,-0.6502,-0.6534,-0.6535,-0.6537,0,0,0,0,0,0,0,0,0,0,0,0,0,-0.6418,-0.6419,-0.6495,-0.6495,-0.6495,-0.6525,-0.6525,-0.6526,-0.6505,-0.6504,-0.6503,-0.6502,-0.6533,-0.6535,-0.6537,0,0,0,0,0,0,0,0,0,0,0,0,0,-0.645,-0.642,-0.6495,-0.6489,-0.6489,-0.6525,-0.6525,-0.6526,-0.6506,-0.6504,-0.6503,-0.6502,-0.6532,-0.6535,-0.6537,-0.6581,0,0,-0.6545,-0.6546,0,0,0,0,0,0,0,0,-0.6448,-0.6453,-0.6489,-0.6489,-0.6489,-0.651,-0.651,-0.6544,-0.6506,-0.6499,-0.6502,-0.6501,-0.6527,-0.653,-0.6539,-0.6583,-0.6584,-0.6545,-0.6547,-0.6548,-0.6549,0,0,0,0,0,0,0,-0.6446,-0.6452,-0.6507,-0.649,-0.649,-0.6484,-0.6487,-0.6516,-0.6521,-0.65,-0.6498,-0.6502,-0.6527,-0.6536,-0.6539,-0.6584,-0.6545,-0.6548,-0.6549,-0.655,-0.6666,-0.6667,0,0,0,0,0,0,-0.6444,-0.645,-0.6506,-0.6508,-0.6465,-0.6487,-0.649,-0.6505,-0.652,-0.6521,-0.6503,-0.6501,-0.6533,-0.6536,-0.654,-0.6593,-0.6548,-0.655,-0.6552,-0.6664,-0.6666,-0.6668,0,0,0,0,0,0,-0.6443,-0.645,-0.6504,-0.6478,-0.6485,-0.649,-0.6506,-0.6506,-0.6516,-0.6523,-0.6523,-0.6512,-0.6532,-0.6537,-0.6571,-0.6594,-0.6552,-0.6554,-0.6662,-0.6665,-0.6667,-0.6699,0,0,0,0,0,0,-0.6441,-0.6449,-0.6466,-0.6479,-0.6486,-0.6535,-0.6507,-0.6508,-0.652,-0.6517,-0.6532,-0.6533,-0.6531,-0.6567,-0.6574,-0.6597,-0.6556,-0.666,-0.6663,-0.6666,-0.6696,-0.6702,-0.6707,0,0,0,0,0,-0.6438,-0.6474,-0.6467,-0.6474,-0.6508,-0.6537,-0.6541,-0.6538,-0.6522,-0.6539,-0.6543,-0.6532,-0.659,-0.6571,-0.6578,-0.6602,-0.6659,-0.6662,-0.6666,-0.6693,-0.6701,-0.6707,0,0,0,0,0,0,-0.6465,-0.6476,-0.6468,-0.6509,-0.6522,-0.6533,-0.6555,-0.6546,-0.6564,-0.6561,-0.6556,-0.656,-0.6596,-0.6602,-0.6581,-0.6645,-0.6622,-0.6627,-0.664,-0.6647,-0.6653,-0.6652,-0.6558,0,0,0,0,0,-0.6475,-0.6498,-0.6506,-0.6542,-0.6548,-0.655,-0.6563,-0.6559,-0.6573,-0.6578,-0.6585,-0.6598,-0.6619,-0.6633,-0.6653,-0.6696,-0.6699,-0.6715,-0.6721,-0.6726,-0.6731,-0.6754,-0.6762,-0.6679,-0.6679,-0.6679,0,0,-0.6497,-0.6506,-0.6521,-0.6547,-0.6557,-0.658,-0.6555,-0.6581,-0.6599,-0.6582,-0.6616,-0.6621,-0.6635,-0.6674,-0.6691,-0.668,-0.6754,-0.673,-0.6734,-0.6736,-0.6758,-0.6766,-0.6773,-0.6681,-0.6681,-0.668,0,0,-0.6551,-0.6559,-0.659,-0.66,-0.6614,-0.6615,-0.6622,-0.6634,-0.6637,-0.667,-0.6658,-0.6678,-0.6714,-0.6725,-0.6735,-0.679,-0.6781,-0.6797,-0.6827,-0.685,-0.6857,-0.6863,-0.6883,-0.6891,-0.6801,-0.6801,-0.6801,0,-0.6577,-0.6612,-0.6607,-0.6634,-0.6646,-0.663,-0.6662,-0.6671,-0.6691,-0.67,-0.6686,-0.6731,-0.674,-0.6781,-0.6795,-0.6803,-0.6811,-0.6796,-0.6856,-0.6862,-0.6867,-0.6887,-0.6895,-0.6803,-0.6803,-0.6803,-0.6803,0,-0.6644,-0.6668,-0.6691,-0.6711,-0.6725,-0.6754,-0.6753,-0.6768,-0.6762,-0.6764,-0.6798,-0.6807,-0.6829,-0.6837,-0.6833,-0.6878,-0.6871,-0.6857,-0.6834,-0.6877,-0.6896,-0.6903,-0.6806,-0.6805,-0.6805,-0.6804,0,0,-0.6717,-0.6732,-0.6741,-0.675,-0.6764,-0.6783,-0.681,-0.6831,-0.6844,-0.6857,-0.6881,-0.6911,-0.6898,-0.6909,-0.6905,-0.6925,-0.6969,-0.6908,-0.6909,-0.6921,-0.702,-0.7032,-0.7041,-0.6961,-0.6963,-0.6964,-0.702,0,-0.6772,-0.6821,-0.6816,-0.6863,-0.6885,-0.687,-0.6894,-0.6905,-0.6907,-0.6926,-0.6928,-0.695,-0.6931,-0.6938,-0.6956,-0.696,-0.6989,-0.6955,-0.6984,-0.6985,-0.6983,-0.7051,-0.7064,-0.7116,-0.7027,-0.7028,-0.7029,0,-0.6844,-0.686,-0.6908,-0.6918,-0.6928,-0.695,-0.6968,-0.6986,-0.6998,-0.6998,-0.701,-0.7002,-0.7029,-0.7004,-0.7042,-0.7019,-0.703,-0.7033,-0.7035,-0.7039,-0.7011,-0.7059,-0.7132,-0.7141,-0.704,-0.7039,-0.7038,0,-0.6894,-0.6927,-0.6961,-0.6969,-0.6981,-0.6997,-0.7002,-0.7013,-0.7025,-0.704,-0.7049,-0.7067,-0.7077,-0.7092,-0.7089,-0.707,-0.7127,-0.7102,-0.7129,-0.7129,-0.7144,-0.7143,-0.7222,-0.7148,-0.7147,-0.7147,-0.7147,0,-0.6957,-0.6988,-0.6984,-0.7005,-0.7038,-0.7032,-0.7065,-0.7069,-0.7078,-0.7099,-0.7086,-0.7106,-0.71,-0.7119,-0.7117,-0.7149,-0.7153,-0.7154,-0.7154,-0.7157,-0.7157,-0.7166,-0.7163,-0.7149,-0.7149,-0.7148,-0.7148,0,-0.702,-0.7019,-0.7055,-0.7062,-0.7065,-0.709,-0.7097,-0.7116,-0.7116,-0.7143,-0.7149,-0.7149,-0.7171,-0.7169,-0.7194,-0.7192,-0.7232,-0.7226,-0.7229,-0.7228,-0.7256,-0.7254,-0.7345,-0.7357,-0.7273,-0.7274,-0.7275,0,-0.7062,-0.7085,-0.7096,-0.7109,-0.7116,-0.7137,-0.7149,-0.7143,-0.7156,-0.7171,-0.7189,-0.7209,-0.7226,-0.7262,-0.7265,-0.7283,-0.7279,-0.7309,-0.7282,-0.7284,-0.7281,-0.7281,-0.7283,-0.7316,-0.7316,-0.7317,-0.7318,0,-0.7137,-0.7134,-0.7153,-0.7171,-0.7186,-0.72,-0.7213,-0.7224,-0.7219,-0.7234,-0.7257,-0.727,-0.7294,-0.7316,-0.7333,-0.7339,-0.7328,-0.7326,-0.7334,-0.7338,-0.7339,-0.734,-0.7246,-0.7325,-0.7324,-0.7323,-0.7323,-0.7323,-0.7191,-0.7211,-0.7222,-0.7243,-0.7251,-0.7263,-0.7282,-0.7283,-0.7302,-0.7322,-0.7317,-0.7342,-0.7352,-0.7375,-0.7382,-0.7401,-0.739,-0.7401,-0.7404,-0.7407,-0.7411,-0.7334,-0.7404,-0.7404,-0.7404,-0.7404,-0.7403,0,-0.7266,-0.7272,-0.7291,-0.7309,-0.7325,-0.7312,-0.7325,-0.734,-0.7362,-0.7372,-0.7389,-0.7414,-0.7434,-0.7438,-0.7456,-0.7472,-0.7467,-0.7477,-0.7477,-0.7478,-0.7419,-0.7412,-0.748,-0.748,-0.748,-0.748,-0.748,-0.748,-0.7308,-0.7341,-0.734,-0.7377,-0.7381,-0.7407,-0.7415,-0.7426,-0.7434,-0.7463,-0.748,-0.7481,-0.7489,-0.7508,-0.7525,-0.7526,-0.7534,-0.7546,-0.7545,-0.749,-0.7483,-0.7475,-0.7468,-0.7548,-0.7548,-0.7602,-0.7603,-0.7603]},{"header":{"parameterUnit":"m.s-1","parameterCategory":1,"la1":30.2991,"la2":30.254,"lo1":-89.0895,"lo2":-89.0444,"dy":0.0017,"dx":0.0017,"nx":28,"ny":28,"refTime":"2023-09-14T03:00:00:Z","depth":0,"parameterNumber":3,"parameterNumberName":"V-component_of_WINDS"},"data":[0,0,0,0,0,0,0,0,0,0,0,0,0,0,0,0,0,0,0,0,0,0,0,0,0,0,0,0,0,0,0,0,0,0,0,0,0,0,0,0,0,0,0,0,0,0,0,0,0,0,0,0,0,0,0,0,0,0,-1.3019,-1.302,0,-1.3119,-1.312,-1.3121,-1.32,-1.3201,-1.3201,-1.3202,-1.33,-1.3302,-1.3304,0,0,0,0,0,0,0,0,0,0,0,0,0,-1.2892,-1.2894,-1.3019,-1.302,-1.3021,-1.3119,-1.312,-1.3121,-1.32,-1.3201,-1.3202,-1.3203,-1.33,-1.3302,-1.3304,0,0,0,0,0,0,0,0,0,0,0,0,0,-1.2965,-1.2895,-1.3019,-1.3072,-1.3078,-1.3118,-1.312,-1.3122,-1.32,-1.3201,-1.3202,-1.3203,-1.3299,-1.3302,-1.3305,-1.3298,0,0,-1.3313,-1.3315,0,0,0,0,0,0,0,0,-1.2961,-1.297,-1.3063,-1.3069,-1.3075,-1.3148,-1.3111,-1.3181,-1.3199,-1.3153,-1.3202,-1.3204,-1.3249,-1.3256,-1.3272,-1.3303,-1.3307,-1.3314,-1.3315,-1.3316,-1.3317,0,0,0,0,0,0,0,-1.2956,-1.2966,-1.3058,-1.3064,-1.3072,-1.309,-1.3102,-1.3125,-1.3193,-1.3157,-1.3163,-1.3174,-1.3252,-1.3269,-1.3275,-1.3309,-1.3313,-1.3316,-1.3318,-1.3319,-1.3339,-1.3338,0,0,0,0,0,0,-1.2943,-1.2961,-1.3055,-1.3061,-1.302,-1.3091,-1.3104,-1.3123,-1.3193,-1.3205,-1.3173,-1.3178,-1.3263,-1.3271,-1.3278,-1.3276,-1.3316,-1.3319,-1.3321,-1.3341,-1.3339,-1.3338,0,0,0,0,0,0,-1.294,-1.2951,-1.3051,-1.3013,-1.3027,-1.3092,-1.3113,-1.3125,-1.3142,-1.3205,-1.3217,-1.3178,-1.3265,-1.3274,-1.3293,-1.3281,-1.332,-1.3323,-1.3342,-1.334,-1.3339,-1.3271,0,0,0,0,0,0,-1.2936,-1.2949,-1.2948,-1.3012,-1.3029,-1.3065,-1.3112,-1.3126,-1.3147,-1.3154,-1.3213,-1.3224,-1.3266,-1.3288,-1.3296,-1.3285,-1.3325,-1.3343,-1.3341,-1.3339,-1.3275,-1.3267,-1.3261,0,0,0,0,0,-1.2931,-1.2925,-1.2948,-1.2959,-1.303,-1.3065,-1.3074,-1.3124,-1.3145,-1.3145,-1.3185,-1.3222,-1.328,-1.329,-1.3299,-1.3289,-1.3344,-1.3342,-1.3339,-1.3278,-1.3269,-1.3261,0,0,0,0,0,0,-1.2856,-1.2934,-1.2961,-1.2975,-1.3013,-1.3078,-1.3079,-1.3113,-1.3145,-1.3149,-1.3209,-1.3222,-1.3234,-1.3263,-1.3272,-1.3286,-1.3317,-1.3316,-1.3267,-1.3259,-1.3252,-1.3245,-1.3327,0,0,0,0,0,-1.2842,-1.2865,-1.2931,-1.2937,-1.2954,-1.3013,-1.303,-1.3066,-1.3107,-1.3123,-1.3165,-1.3202,-1.3229,-1.3245,-1.3273,-1.3278,-1.3292,-1.3276,-1.3269,-1.3263,-1.3262,-1.3267,-1.326,-1.3329,-1.3329,-1.333,0,0,-1.2811,-1.2857,-1.2867,-1.2923,-1.2957,-1.2978,-1.3026,-1.3047,-1.3063,-1.3125,-1.3147,-1.3178,-1.3223,-1.3235,-1.3243,-1.326,-1.3245,-1.326,-1.3254,-1.3257,-1.3263,-1.3257,-1.3251,-1.3328,-1.3328,-1.3328,0,0,-1.2768,-1.2804,-1.2814,-1.2846,-1.2896,-1.2935,-1.2937,-1.2997,-1.3021,-1.3043,-1.309,-1.3109,-1.3154,-1.3185,-1.3206,-1.3172,-1.3207,-1.3179,-1.3144,-1.3148,-1.3142,-1.3138,-1.3126,-1.3121,-1.3178,-1.3178,-1.3177,0,-1.2724,-1.276,-1.2814,-1.2832,-1.2855,-1.2913,-1.2922,-1.295,-1.3006,-1.302,-1.3039,-1.3097,-1.3131,-1.3151,-1.3143,-1.3158,-1.3161,-1.3174,-1.3139,-1.3135,-1.3131,-1.3121,-1.3116,-1.3174,-1.3174,-1.3175,-1.3175,0,-1.2703,-1.2727,-1.2728,-1.2783,-1.2805,-1.2818,-1.2873,-1.2889,-1.2922,-1.2958,-1.2979,-1.3022,-1.3061,-1.3067,-1.3099,-1.3092,-1.3101,-1.3128,-1.3161,-1.312,-1.3112,-1.3108,-1.3169,-1.317,-1.3171,-1.3172,0,0,-1.2618,-1.2701,-1.2701,-1.2726,-1.2785,-1.2804,-1.2819,-1.2857,-1.287,-1.2905,-1.292,-1.2956,-1.2981,-1.3005,-1.3041,-1.3044,-1.3015,-1.3071,-1.3073,-1.306,-1.3009,-1.2989,-1.2984,-1.3037,-1.3037,-1.3036,-1.3006,0,-1.2584,-1.2617,-1.2666,-1.2682,-1.2704,-1.2759,-1.2772,-1.2808,-1.2842,-1.2865,-1.2901,-1.2926,-1.2958,-1.2973,-1.2978,-1.3017,-1.3006,-1.302,-1.3051,-1.3051,-1.3039,-1.2979,-1.2959,-1.2928,-1.3002,-1.3002,-1.3002,0,-1.2551,-1.2585,-1.2604,-1.2661,-1.2672,-1.2683,-1.2722,-1.2743,-1.2785,-1.2809,-1.2835,-1.2874,-1.2891,-1.2919,-1.2944,-1.2953,-1.2967,-1.2988,-1.2988,-1.2994,-1.3025,-1.2985,-1.2919,-1.2915,-1.2997,-1.2997,-1.2997,0,-1.2488,-1.2538,-1.2556,-1.2576,-1.2642,-1.2649,-1.2676,-1.272,-1.2739,-1.2772,-1.2786,-1.2819,-1.2838,-1.2862,-1.2908,-1.2924,-1.2927,-1.2959,-1.2948,-1.2946,-1.2947,-1.2947,-1.2884,-1.2954,-1.2954,-1.2954,-1.2954,0,-1.2447,-1.2456,-1.2529,-1.254,-1.2552,-1.2606,-1.2616,-1.2648,-1.2686,-1.2703,-1.2751,-1.2765,-1.2825,-1.2846,-1.2881,-1.2896,-1.2904,-1.2923,-1.2933,-1.292,-1.2918,-1.2932,-1.2936,-1.2953,-1.2953,-1.2954,-1.2954,0,-1.2379,-1.2428,-1.2452,-1.2512,-1.2528,-1.2534,-1.2585,-1.2597,-1.2633,-1.2654,-1.2662,-1.2718,-1.2745,-1.2793,-1.2833,-1.2857,-1.2865,-1.2881,-1.2852,-1.2858,-1.2844,-1.2845,-1.2789,-1.2785,-1.2856,-1.2855,-1.2854,0,-1.2351,-1.236,-1.2421,-1.2437,-1.2463,-1.2488,-1.2508,-1.2561,-1.258,-1.2628,-1.2633,-1.2665,-1.2693,-1.2734,-1.2777,-1.2808,-1.2825,-1.2804,-1.283,-1.2817,-1.2826,-1.2826,-1.2827,-1.2798,-1.2797,-1.2796,-1.2796,0,-1.2295,-1.2319,-1.2347,-1.2384,-1.2407,-1.2438,-1.2471,-1.2481,-1.254,-1.2559,-1.2588,-1.261,-1.2652,-1.2682,-1.2719,-1.2746,-1.278,-1.2786,-1.2786,-1.2773,-1.2757,-1.2766,-1.2837,-1.2788,-1.2789,-1.2789,-1.279,-1.279,-1.2248,-1.2258,-1.2303,-1.2333,-1.2363,-1.2393,-1.2407,-1.2445,-1.2471,-1.251,-1.2538,-1.2565,-1.2606,-1.2659,-1.2684,-1.2705,-1.2721,-1.2719,-1.2719,-1.2718,-1.2713,-1.2752,-1.2711,-1.2712,-1.2712,-1.2712,-1.2712,0,-1.2196,-1.2227,-1.2254,-1.2299,-1.2322,-1.2353,-1.2391,-1.2407,-1.2431,-1.2466,-1.2493,-1.2526,-1.2555,-1.26,-1.2632,-1.264,-1.2657,-1.2647,-1.2648,-1.2653,-1.2697,-1.2695,-1.2633,-1.2633,-1.2633,-1.2633,-1.2633,-1.2633,-1.2172,-1.2191,-1.2219,-1.2253,-1.2284,-1.2313,-1.2331,-1.2358,-1.2387,-1.2422,-1.2447,-1.2476,-1.2515,-1.255,-1.2578,-1.259,-1.26,-1.2585,-1.2602,-1.2643,-1.265,-1.2657,-1.2656,-1.2587,-1.2587,-1.2558,-1.2557,-1.2557]}]]